Miscellaneous Local Product
Issued by NWS North Platte, NE

Home | Current Version | Previous Version | Text Only | Print | Product List | Glossary On
Versions: 1 2 3 4 5 6 7 8 9 10 11 12 13 14 15 16 17 18 19 20 21 22 23 24 25 26 27 28 29 30 31 32 33 34 35 36 37 38 39 40 41 42 43 44 45 46 47 48 49 50
193
AXUS43 KLBF 121210
MISLBF


WESTERN AND NORTH CENTRAL NEBRASKA HOURLY WEATHER ROUNDUP
NATIONAL WEATHER SERVICE NORTH PLATTE NE
600 AM CST TUE DEC 12 2017

NOTE: "FAIR" INDICATES FEW OR NO CLOUDS BELOW 12,000 FEET WITH NO
SIGNIFICANT WEATHER AND/OR OBSTRUCTIONS TO VISIBILITY.

NOTE: STATIONS NOT REPORTING VARIABLES SUCH AS SKY/WEATHER OR
PRESSURE ARE PROVIDED BY RAWS AND APRS NETWORKS AND ARE NOT UNDER
NATIONAL WEATHER SERVICE QUALITY CONTROL.

...OBSERVATIONS IN AND NEAR THE EASTERN PANHANDLE OF NEBRASKA...

CITY           SKY/WX    TMP DP  RH WIND       PRES   REMARKS
PINE RIDGE     CLOUDY    23  17  78 CALM      30.27F
GORDON         FAIR      21  16  82 CALM      30.25F
CHADRON        CLOUDY    23  16  74 SW9       30.29F WCI  13
ALLIANCE       CLOUDY    13   8  81 W5        30.28F WCI   5
SIDNEY         CLOUDY    24  14  65 W10       30.32F WCI  14
CRESCENT LAKE    N/A     24  14  66 CALM        N/A
$$

...OBSERVATIONS IN NORTHERN NEBRASKA AND FAR SOUTHERN SOUTH DAKOTA...

CITY           SKY/WX    TMP DP  RH WIND       PRES   REMARKS
WINNER         FAIR      28  23  81 W9        30.26F WCI  19
VALENTINE      CLOUDY    22  19  89 W7        30.27F WCI  13
THEDFORD       CLOUDY    23  20  89 W5        30.29F WCI  17
AINSWORTH      CLOUDY    24  23  94 W6        30.27F WCI  17
O`NEILL        CLOUDY    31  31  97 W5        30.27F WCI  27
ORD            CLOUDY    29  26  89 W7        30.29F WCI  22
BROKEN BOW     CLOUDY    29  22  75 W12       30.30F WCI  19
VALENTINE NWR    N/A     24  21  88 W5          N/A  WCI  18
HALSEY           N/A     24  20  86 W6          N/A  WCI  17
BUTTE            N/A     29  27  91 CALM        N/A
CHAMBERS         N/A     31  28  86 CALM        N/A
EWING            N/A     20  19  94 CALM        N/A
$$

...OBSERVATIONS IN SOUTHWEST NEBRASKA AND FAR NORTHEAST COLORADO...

CITY           SKY/WX    TMP DP  RH WIND       PRES   REMARKS
WRAY           FAIR      23  12  63 W12       30.34F WCI  12
HOLYOKE        FAIR      23  14  68 W9        30.33F WCI  13
IMPERIAL       CLOUDY    21  12  68 W7        30.33F WCI  12
OGALLALA       CLOUDY    16  11  82 CALM      30.33F
NORTH PLATTE   CLOUDY    16  14  92 NW5       30.32F WCI   9
MCCOOK         CLOUDY    19  16  88 W8        30.36F WCI   9
LEXINGTON      CLOUDY    21  18  88 NW6       30.34F WCI  14
STAPLETON        N/A     18  15  89 CALM        N/A
GOTHENBURG       N/A     22  18  85 NW5         N/A  WCI  16
CALLAWAY         N/A     23  20  89 NW12        N/A  WCI  12
$$

...OBSERVATIONS IN CENTRAL LINCOLN COUNTY AREA...

CITY           SKY/WX    TMP DP  RH WIND       PRES   REMARKS
N.P. AIRPORT   CLOUDY    16  14  92 NW5       30.32F WCI   9
N.P. DOWNTOWN    N/A     19  16  88 CALM        N/A
N.P. SOUTHEAST   N/A     20  16  85 CALM        N/A
N.P. HILLCREST   N/A     19  17  93 CALM        N/A
$$

...SOME OBSERVATIONS FROM AROUND THE REGION...

CITY           SKY/WX    TMP DP  RH WIND       PRES   REMARKS
DENVER         CLOUDY    37   7  28 SW16      30.35F WCI  28
GRAND JUNCTION CLOUDY    21   2  43 E7        30.53S WCI  12
LARAMIE        CLOUDY    18  11  74 SE3       30.42S
CHEYENNE       CLOUDY    26  15  63 W9        30.35F WCI  17
CASPER         CLOUDY    35  16  45 SW17      30.36F WCI  25
BISMARCK       CLOUDY    20  18  92 SW5       30.13F WCI  13
RAPID CITY     CLOUDY    18  11  74 CALM      30.21F
PIERRE         CLEAR     29  26  89 W10       30.23F WCI  20
SIOUX FALLS    CLOUDY    14  12  92 W5        30.27F WCI   6
OMAHA          CLOUDY    15   9  76 NW7       30.35S WCI   5
GRAND ISLAND   CLOUDY    30  27  88 SW6       30.32F WCI  24
SCOTTSBLUFF    CLOUDY    24  15  68 NW8       30.32F WCI  15
KANSAS CITY    CLEAR     20  13  74 N9        30.32S WCI   9
HILL CITY      CLOUDY    24  20  84 W7        30.38F WCI  16
WICHITA        CLEAR     28  23  81 NW8       30.38S WCI  20
DODGE CITY     CLOUDY    25  17  72 W10       30.41F WCI  15
OKLAHOMA CITY  CLEAR     35  27  72 NW14      30.39R WCI  26
DALLAS         PTCLDY    47  29  49 N14G23    30.34R
AMARILLO       CLEAR     22  11  62 W6        30.46R WCI  14
$$




USA.gov is the U.S. government's official web portal to all federal, state and local government web resources and services.